This is the latest recevied weather packets stored in our database for station/object W2EH. If no packets are shown the sender has not sent any weather packets the latest 10 day(s).
| Time | Temp. | Humidity | Pressure | Rain* | Wind** | Luminosity | Snow |
|---|---|---|---|---|---|---|---|
| 1777913698 | 23.89° C | 64% | 1012.8 hPa | 0 mm | - | 290 W/m² | - |
| 1777913395 | 23.89° C | 63% | 1012.9 hPa | 0 mm | - | 201 W/m² | - |
| 1777913092 | 23.89° C | 64% | 1013.1 hPa | 0 mm | - | 184 W/m² | - |
| 1777912788 | 23.33° C | 66% | 1012.9 hPa | 0 mm | - | 211 W/m² | - |
| 1777912484 | 23.33° C | 65% | 1012.8 hPa | 0 mm | - | 149 W/m² | - |
| 1777912181 | 23.33° C | 66% | 1013.1 hPa | 0 mm | - | 110 W/m² | - |
| 1777911877 | 23.89° C | 65% | 1012.9 hPa | 0 mm | - | 163 W/m² | - |
| 1777911573 | 23.33° C | 66% | 1013 hPa | 0 mm | - | 136 W/m² | - |
| 1777911269 | 22.78° C | 67% | 1013.1 hPa | 0 mm | - | 262 W/m² | - |
| 1777910967 | 22.78° C | 67% | 1013.2 hPa | 0 mm | - | 124 W/m² | - |
| 1777910665 | 22.78° C | 64% | 1013.1 hPa | 0 mm | - | 119 W/m² | - |
| 1777910361 | 22.78° C | 68% | 1013 hPa | 0 mm | - | 224 W/m² | - |
| 1777910058 | 22.78° C | 66% | 1013.3 hPa | 0 mm | - | 87 W/m² | - |
| 1777909755 | 22.22° C | 68% | 1013.1 hPa | 0 mm | - | 81 W/m² | - |
| 1777909452 | 22.22° C | 66% | 1013.2 hPa | 0 mm | - | 103 W/m² | - |
| 1777909150 | 22.78° C | 66% | 1013.5 hPa | 0 mm | - | 123 W/m² | - |
| 1777908848 | 22.78° C | 66% | 1013.3 hPa | 0 mm | - | 643 W/m² | - |
| 1777908544 | 22.22° C | 66% | 1013.3 hPa | 0 mm | - | 567 W/m² | - |
| 1777908241 | 22.22° C | 67% | 1013.4 hPa | 0 mm | - | 618 W/m² | - |
| 1777907938 | 22.22° C | 69% | 1013.6 hPa | 0 mm | - | 463 W/m² | - |
| 1777907633 | 21.67° C | 69% | 1013.8 hPa | 0 mm | - | 580 W/m² | - |
| 1777907329 | 21.11° C | 69% | 1013.5 hPa | 0 mm | - | 521 W/m² | - |
| 1777907025 | 21.11° C | 70% | 1013.5 hPa | 0 mm | - | 454 W/m² | - |
| 1777906723 | 20.56° C | 70% | 1013.6 hPa | 0 mm | - | 153 W/m² | - |
| 1777906419 | 20.56° C | 71% | 1013.7 hPa | 0 mm | - | 106 W/m² | - |
* Rain latest hour (hover to see other rain measurements)
** Current wind speed in m/s (hover to see current wind gust speed)